Regional Weather Roundup
Issued by NWS Charleston, SC

Current Version | Previous Version | Graphics & Text | Print | Product List | Glossary On
Versions: 1 2 3 4 5 6 7 8 9 10 11 12 13 14 15 16 17 18 19 20 21 22 23 24 25 26 27 28 29 30 31 32 33 34 35 36 37 38 39 40 41 42 43 44 45 46 47 48 49 50
000 ASUS42 KCHS 290427 RWRCHS REGIONAL WEATHER ROUNDUP NATIONAL WEATHER SERVICE CHARLESTON SC 1200 AM EDT SAT APR 29 2017 NOTE: "FAIR" INDICATES FEW OR NO CLOUDS BELOW 12,000 FEET WITH NO SIGNIFICANT WEATHER AND/OR OBSTRUCTIONS TO VISIBILITY. NOT ALL STATIONS ARE QUALITY CONTROLLED. USE DATA WITH CAUTION... ESPECIALLY DEWPOINT OBSERVATIONS. SCZ027-030-031-034>040-042>050-290500- ...SOUTHEAST SOUTH CAROLINA... CITY SKY/WX TMP DP RH WIND PRES REMARKS N CHARLESTON MOCLDY 76 72 87 S9 30.14S WATERFRONT PRK N/A 76 75 96 S10 30.13S JOHNS ISLAND FAIR 75 73 94 S12 30.14F PINOPOLIS N/A 75 73 94 S5 30.06S MONCKS CORNER CLOUDY 73 72 94 S6 30.14S SUMMERVILLE MOCLDY 73 72 94 S3 30.15S BEAUFORT MCAS PTCLDY 77 75 93 S8 30.14S BEAUFORT ARPT MOCLDY 75 72 88 S9 30.14S FOG HILTON HEAD IS PTCLDY 75 75 100 S9 30.15S FOG WALTERBORO MOCLDY 73 72 94 S7 30.14S ALLENDALE MOCLDY 75 72 88 SE6 30.12R ...SOUTHERN MIDLANDS AND PEE DEE... CITY SKY/WX TMP DP RH WIND PRES REMARKS GEORGETOWN CLOUDY 73 73 100 S9 30.17R KINGSTREE CLOUDY 73 72 94 SE7 30.14R ORANGEBURG CLEAR 74 71 91 S8 30.13R BARNWELL FAIR 77 73 88 SE7 30.12S AIKEN FAIR 73 70 88 S5 30.15R MANNING MOCLDY 73 70 88 S21 30.14R COLUMBIA CLEAR 79 70 74 S9 30.10R SUMTER CLEAR 75 71 87 S7 30.10R FLORENCE CLEAR 75 73 93 S7 30.13R MYRTLE BEACH CLOUDY 75 73 93 S10 30.17 N MYRTLE BEACH MOCLDY 74 74 100 S12 30.16S $$ GAZ063-065-086>088-099>101-113>116-118-119-134>141-150-290500- ...SOUTHEAST GEORGIA... CITY SKY/WX TMP DP RH WIND PRES REMARKS SAVANNAH ARPT PTCLDY 76 71 85 S15 30.13S HUNTER AAF CLEAR 76 76 100 S7 30.11S FORT STEWART CLEAR 75 70 85 SE6 30.11R STATESBORO CLEAR 76 71 82 S7 30.12S SYLVANIA CLEAR N/A N/A N/A S5 30.13S CLAXTON FAIR 76 76 100 CALM 30.12S ...CSRA...CENTRAL AND FAR SOUTHEAST GEORGIA... CITY SKY/WX TMP DP RH WIND PRES REMARKS THOMSON PTCLDY 70 68 93 SW3 30.15S AUGUSTA-BUSH PTCLDY 77 72 84 SE7 30.09R HAZE AUGUSTA-DANIEL PTCLDY 79 70 74 SE6 30.11R SWAINSBORO FAIR 77 70 78 SE6 30.12R VIDALIA CLEAR 79 70 73 S6 30.12R EASTMAN FAIR 76 60 57 SE7 30.12R HAZLEHURST FAIR 79 73 80 S6 30.10S ALMA CLEAR 77 71 82 SE5 30.11R WAYCROSS PTCLDY 79 74 83 S6 30.12R JESUP FAIR 75 68 78 S3 30.13R BAXLEY FAIR 77 75 94 S6 30.12R BRUNSWICK PTCLDY 77 73 88 SE12G18 30.14R SAINT SIMONS MOCLDY 76 73 91 SE10 30.13S $$ SCZ027-028-034-036>038-045-046-048>050-GAZ119-141-290500- ...LAKE AND SUPPLEMENTAL COASTAL OBSERVATIONS... STATION/POSITION TIME TEMP WIND PRES WAVE SWELL AIR SEA DIR/SP/G HT/PER HT/PER/DIR (UTC) (F) (DEG/KT/KT) (MB) (FT/S) (FT/S/D) WINYAH BAY 0330 76 200/ 9 1021.0S LAKE MURRAY 0420 76 190/ 6/ 9 1019.0R ACE BASIN NERRS 0345 76 170/ 1 1021.0S FORT PULASKI 0400 75 76 180/ 5/ 8 1020.8 SAPELO ISLAND 0400 76 160/ 9 1020.0 $$ ANZ835-935-AMZ111-154-330-350-352-354-370-450-454-472-290500- ...C-MAN AND BUOY OBSERVATIONS... STATION/POSITION TIME TEMP WIND PRES WAVE SWELL AIR SEA DIR/SP/G HT/PER HT/PER/DIR (UTC) (F) (DEG/KT/KT) (MB) (FT/S) (FT/S/D) BUOY 41004 0410 76 74 170/ 12/ 16 1021.0 BUOY 41008 0350 74 73 140/ 14/ 16 1019.8R 3/ 5 2/110/ 8 FOLLY BEACH CMAN 0400 75 170/ 15/ 17 1021.3F CAPERS NEARSHORE 0408 74 75 180/ 14/ 17 1020.6S FRIPP NEARSHORE 0408 74 72 170/ 12/ 16 1020.1F STATION/POSITION TIME TEMP WIND PRES WAVE SWELL AIR SEA DIR/SP/G HT/PER HT/PER/DIR (UTC) (F) (DEG/KT/KT) (MB) (FT/S) (FT/S/D) 5E ST. MARYS GA 0400 74 N/A 3/ 5 FRYING PAN BUOY 0410 75 73 190/ 8/ 10 1022.0 BUOY 41025 0350 77 76 210/ 16/ 19 1021.7R 4/ 7 2/120/ 7 CAPE LOOKOUT NC 0400 73 200/ 9/ 11 1021.6R BUOY 41002 0350 74 75 150/ 12/ 14 1024.9R 3/ 8 3/ 50/ 8 BUOY 41010 0410 78 79 120/ 14/ 17 1022.0 ST AUGUSTINE FL 0400 76 78 140/ 16/ 18 1021.1S $$

USA.gov is the U.S. government's official web portal to all federal, state and local government web resources and services.